Regional Weather Roundup
Issued by NWS Albany, NY

Home | Current Version | Previous Version | Graphics & Text | Print | Product List | Glossary On
Versions: 1 2 3 4 5 6 7 8 9 10 11 12 13 14 15 16 17 18 19 20 21 22 23 24 25 26 27 28
000
ASUS41 KALY 261810
RWRALY

NEW YORK STATE HOURLY WEATHER ROUNDUP
NATIONAL WEATHER SERVICE ALBANY NY
200 PM EDT MON SEP 26 2016

NOTE: "FAIR" INDICATES FEW OR NO CLOUDS BELOW 12,000 FEET WITH NO
SIGNIFICANT WEATHER AND/OR NO OBSTRUCTIONS TO VISIBILITY.

NYZ032-033-038>043-046>054-057>066-NYZ062>081-082-084-261900-
EAST


CITY           SKY/WX    TMP DP  RH WIND       PRES   REMARKS
ALBANY         PTSUNNY   67  43  41 S12       30.09F
GLENS FALLS    MOSUNNY   64  41  42 S12       30.09F
POUGHKEEPSIE   SUNNY     68  46  45 S12G18    30.10F
NEWBURGH       MOSUNNY   70  50  49 SW14G23   30.12F
MONTGOMERY     MOSUNNY   71  49  45 S14G22    30.09F
WHITE PLAINS   PTSUNNY   68  46  45 S7        30.12F
ISLIP          PTSUNNY   68  47  46 S10G18    30.14F
NEW YORK CITY  PTSUNNY   71  49  45 SE10G20   30.11F
CENTRAL PARK   PTSUNNY   71  49  45 VRB3      30.14F
$$

NYZ005>009-017-018-044>046-055-056-261900-
CENTRAL


CITY           SKY/WX    TMP DP  RH WIND       PRES   REMARKS
FULTON         PTSUNNY   68  49  50 VRB7G18   29.94F
SYRACUSE       CLOUDY    68  49  50 S9        29.95F
ROME           CLOUDY    65  49  56 SE9       30.02F
ELMIRA         PTSUNNY   70  52  52 SW10G24   29.98F
BINGHAMTON     PTSUNNY   65  48  54 S13G23    30.04F
MONTICELLO     PTSUNNY   66  46  48 S15G23    30.12F
$$

NYZ026>034-041>043-087-261900-
NORTH


CITY           SKY/WX    TMP DP  RH WIND       PRES   REMARKS
WATERTOWN      CLOUDY    67  46  47 SE13G23   29.94F
FORT DRUM      NOT AVBL
OGDENSBURG     FAIR      68  44  41 SE6       29.98F
MASSENA        PTSUNNY   65  40  39 E6        30.02F
SARANAC LAKE   SUNNY     62  32  32 SW10      30.03F
PLATTSBURGH    SUNNY     64  42  44 S17G25    30.05F
$$

NYZ001>004-010>016-019>021-085-261900-
WEST


CITY           SKY/WX    TMP DP  RH WIND       PRES   REMARKS
NIAGARA FALLS  RAIN      65  60  84 SW15G23   29.87F
BUFFALO        LGT RAIN  67  58  72 SW15      29.89S
DUNKIRK        LGT RAIN  62  59  90 S14       29.90F
JAMESTOWN      CLOUDY    59  55  88 SW12      29.94F
WELLSVILLE     PTSUNNY   69  52  54 S13G21    29.98F
ROCHESTER      CLOUDY    74  54  49 S13       29.88F
PENN YAN       CLOUDY    72  51  47 S17G26    29.94F
$$

             KEY
       WCI = WIND CHILL INDEX
       VSB = VISIBILITY
       HX  = HEAT INDEX
$$




USA.gov is the U.S. government's official web portal to all federal, state and local government web resources and services.